Toledo Metcalf, OH

4:30 AM EDT on March 30, 2017 (GMT -0400)
Metcalf

Weather History for KTDZ - September, 2013

Change the Weather History Date:

Thursday, September 19, 2013

  Actual Average (KTOL) Record (KTOL)
Temperature  
Mean Temperature 72 °F -  
Max Temperature 82 °F 74 °F 93 °F (1955)
Min Temperature 62 °F 51 °F 35 °F (1973)
Cooling Degree Days 7    
Growing Degree Days 22 (Base 50)    
Moisture  
Dew Point 63 °F    
Average Humidity 80    
Maximum Humidity 94    
Minimum Humidity 56    
Precipitation  
Precipitation 0.00 in - - ()
Sea Level Pressure  
Sea Level Pressure 30.03 in    
Wind  
Wind Speed 7 mph (South)    
Max Wind Speed 12 mph    
Max Gust Speed 16 mph    
Visibility 6 miles    
Events Fog    
Averages and records for this station are not official NWS values.
T = Trace of Precipitation, MM = Missing Value Source: NWS Daily Summary

Daily Weather History Graph

Daily Weather History Graph

Search for Another Location

Airport or City:

Trip Planner

Search our weather history database for the weather conditions in past years. The results will help you decide how hot, cold, wet, or windy it might be!

Date:

Astronomy

Sep. 19, 2013 Rise Set
Actual Time 7:18 AM EDT 7:35 PM EDT
Civil Twilight 6:50 AM EDT 8:03 PM EDT
Nautical Twilight 6:18 AM EDT 8:36 PM EDT
Astronomical Twilight 5:44 AM EDT 9:09 PM EDT
Moon 7:32 PM EDT (9/19) 7:27 AM EDT (9/19)
Length of Visible Light 13h 12m
Length of Day
12h 17m
Full, 100% of the Moon is Illuminated
Sep 19
Full
Sep 26
Last Quarter
Oct 4
New
Oct 11
First Quarter
Oct 18
Full

Hourly Weather History & Observations

Time (EDT) Temp. Heat Index Dew Point Humidity Pressure Visibility Wind Dir Wind Speed Gust Speed Precip Events Conditions
12:53 AM 63.0 °F - 59.0 °F 87% 30.06 in 9.0 mi South 6.9 mph - N/A   Clear
1:53 AM 62.1 °F - 59.0 °F 90% 30.06 in 7.0 mi South 6.9 mph - N/A   Clear
2:53 AM 62.1 °F - 59.0 °F 90% 30.05 in 6.0 mi South 5.8 mph - N/A   Clear
3:53 AM 62.1 °F - 59.0 °F 90% 30.05 in 5.0 mi South 4.6 mph - N/A   Clear
4:53 AM 62.1 °F - 59.0 °F 90% 30.03 in 5.0 mi South 4.6 mph - N/A   Clear
5:53 AM 62.1 °F - 60.1 °F 93% 30.03 in 4.0 mi South 6.9 mph - N/A   Clear
6:53 AM 63.0 °F - 60.1 °F 90% 30.05 in 4.0 mi South 6.9 mph - N/A   Clear
7:21 AM 62.6 °F - 60.8 °F 94% 30.07 in 3.0 mi South 6.9 mph - N/A   Scattered Clouds
7:25 AM 62.6 °F - 60.8 °F 94% 30.07 in 2.5 mi South 5.8 mph - N/A   Mostly Cloudy
7:36 AM 64.4 °F - 62.6 °F 94% 30.08 in 1.2 mi South 6.9 mph - N/A   Mostly Cloudy
7:42 AM 64.4 °F - 62.6 °F 94% 30.07 in 0.8 mi South 5.8 mph - N/A   Overcast
7:53 AM 64.0 °F - 62.1 °F 93% 30.06 in 0.5 mi South 5.8 mph - N/A Fog Fog
8:22 AM 64.4 °F - 62.6 °F 94% 30.07 in 1.0 mi South 4.6 mph - N/A   Mostly Cloudy
8:29 AM 64.4 °F - 62.6 °F 94% 30.07 in 1.2 mi South 4.6 mph - N/A   Scattered Clouds
8:53 AM 66.0 °F - 64.0 °F 93% 30.06 in 1.8 mi South 6.9 mph - N/A   Partly Cloudy
9:12 AM 66.2 °F - 64.4 °F 94% 30.06 in 2.0 mi South 5.8 mph - N/A   Clear
9:32 AM 69.8 °F - 64.4 °F 83% 30.06 in 3.0 mi South 8.1 mph - N/A   Clear
9:53 AM 71.1 °F - 66.0 °F 84% 30.06 in 4.0 mi South 9.2 mph - N/A   Haze
10:19 AM 71.6 °F - 66.2 °F 83% 30.06 in 4.0 mi SSW 8.1 mph - N/A   Haze
10:53 AM 72.0 °F - 66.0 °F 81% 30.05 in 5.0 mi South 6.9 mph - N/A   Haze
11:10 AM 73.4 °F - 66.2 °F 78% 30.06 in 6.0 mi SSW 8.1 mph - N/A   Haze
11:53 AM 73.9 °F - 64.9 °F 73% 30.06 in 8.0 mi SSW 6.9 mph - N/A   Overcast
12:41 PM 75.2 °F - 64.4 °F 69% 30.04 in 8.0 mi South 10.4 mph - N/A   Scattered Clouds
12:53 PM 77.0 °F - 66.0 °F 69% 30.03 in 9.0 mi SSE 11.5 mph - N/A   Mostly Cloudy
1:19 PM 77.0 °F - 64.4 °F 65% 30.03 in 10.0 mi South 8.1 mph - N/A   Scattered Clouds
1:53 PM 79.0 °F - 64.9 °F 62% 30.01 in 10.0 mi South 10.4 mph - N/A   Scattered Clouds
2:06 PM 78.8 °F - 64.4 °F 61% 30.02 in 10.0 mi South 9.2 mph - N/A   Mostly Cloudy
2:14 PM 78.8 °F - 64.4 °F 61% 30.01 in 10.0 mi Variable 5.8 mph - N/A   Scattered Clouds
2:53 PM 82.0 °F 84.1 °F 66.0 °F 58% 29.99 in 10.0 mi SSW 9.2 mph 16.1 mph N/A   Partly Cloudy
3:53 PM 81.0 °F 82.5 °F 64.0 °F 56% 29.99 in 10.0 mi South 11.5 mph - N/A   Overcast
4:53 PM 80.1 °F 81.7 °F 64.0 °F 58% 29.98 in 10.0 mi SW 9.2 mph - N/A   Mostly Cloudy
5:53 PM 78.1 °F - 64.9 °F 64% 29.97 in 10.0 mi SW 6.9 mph - N/A   Clear
6:53 PM 75.9 °F - 64.9 °F 69% 29.94 in 10.0 mi South 5.8 mph - N/A   Clear
7:53 PM 75.0 °F - 64.9 °F 71% 29.96 in 10.0 mi SSW 4.6 mph - N/A   Mostly Cloudy
8:53 PM 70.0 °F - 64.0 °F 81% 29.95 in 10.0 mi SSE 4.6 mph - N/A   Partly Cloudy
9:53 PM 69.1 °F - 64.0 °F 84% 29.97 in 10.0 mi South 5.8 mph - N/A   Clear
10:53 PM 70.0 °F - 64.9 °F 84% 29.98 in 9.0 mi South 6.9 mph - N/A   Overcast
11:53 PM 69.1 °F - 64.9 °F 87% 29.96 in 8.0 mi South 8.1 mph - N/A   Mostly Cloudy